Weather History for KAXS - June, 2013

Change the Weather History Date:

Sunday, June 2, 2013

  Actual Average (KLTS) Record (KLTS)
Temperature  
Mean Temperature 71 °F -  
Max Temperature 85 °F 86 °F 113 °F (1998)
Min Temperature 58 °F 64 °F 54 °F (2013)
Cooling Degree Days 6    
Growing Degree Days 21 (Base 50)    
Moisture  
Dew Point 47 °F    
Average Humidity 45    
Maximum Humidity 76    
Minimum Humidity 22    
Precipitation  
Precipitation 0.00 in - - ()
Sea Level Pressure  
Sea Level Pressure 30.09 in    
Wind  
Wind Speed 7 mph (ENE)    
Max Wind Speed 17 mph    
Max Gust Speed 20 mph    
Visibility 10 miles    
Events      
Averages and records for this station are not official NWS values.
T = Trace of Precipitation, MM = Missing Value Source: NWS Daily Summary

Daily Weather History Graph

Daily Weather History Graph

Search for Another Location

Airport or City:

Trip Planner

Search our weather history database for the weather conditions in past years. The results will help you decide how hot, cold, wet, or windy it might be!

Date:

Astronomy

Jun. 02, 2013 Rise Set
Actual Time 6:25 AM CDT 8:46 PM CDT
Civil Twilight 5:55 AM CDT 9:15 PM CDT
Nautical Twilight 5:20 AM CDT 9:51 PM CDT
Astronomical Twilight 4:41 AM CDT 10:30 PM CDT
Moon 2:39 AM CDT (6/2) 3:29 PM CDT (6/2)
Length of Visible Light 15h 19m
Length of Day
14h 21m
Waning Crescent, 30% of the Moon is Illuminated
Jun 2
Waning Crescent
Jun 8
New
Jun 16
First Quarter
Jun 23
Full
Jun 29
Last Quarter

Hourly Weather History & Observations

Time (CDT) Temp. Dew Point Humidity Pressure Visibility Wind Dir Wind Speed Gust Speed Precip Events Conditions
12:15 AM 68.4 °F 49.6 °F 51% 30.09 in 10.0 mi ENE 6.9 mph - N/A   Clear
12:35 AM 67.3 °F 50.2 °F 54% 30.09 in 10.0 mi ENE 5.8 mph - N/A   Clear
12:55 AM 66.6 °F 50.4 °F 56% 30.09 in 10.0 mi ENE 5.8 mph - N/A   Clear
1:15 AM 64.8 °F 50.4 °F 60% 30.08 in 10.0 mi NE 5.8 mph - N/A   Clear
1:35 AM 64.2 °F 50.9 °F 62% 30.08 in 10.0 mi NNE 4.6 mph - N/A   Clear
1:55 AM 63.9 °F 50.7 °F 62% 30.08 in 10.0 mi NNE 4.6 mph - N/A   Clear
2:15 AM 64.2 °F 50.5 °F 61% 30.08 in 10.0 mi North 4.6 mph - N/A   Clear
2:35 AM 64.0 °F 50.9 °F 62% 30.09 in 10.0 mi North 4.6 mph - N/A   Clear
2:55 AM 60.6 °F 49.6 °F 67% 30.09 in 10.0 mi North 4.6 mph - N/A   Clear
3:15 AM 58.3 °F 48.7 °F 71% 30.10 in 10.0 mi North 8.1 mph - N/A   Clear
3:35 AM 59.4 °F 50.0 °F 71% 30.10 in 10.0 mi North 6.9 mph - N/A   Clear
3:55 AM 62.1 °F 51.1 °F 67% 30.11 in 10.0 mi NNE 9.2 mph - N/A   Clear
4:15 AM 64.4 °F 50.9 °F 62% 30.11 in 10.0 mi NE 12.7 mph - N/A   Clear
4:35 AM 63.9 °F 50.2 °F 61% 30.12 in 10.0 mi ENE 9.2 mph - N/A   Clear
4:55 AM 62.8 °F 50.4 °F 64% 30.12 in 10.0 mi NE 12.7 mph - N/A   Clear
5:15 AM 62.1 °F 50.4 °F 65% 30.13 in 10.0 mi NE 11.5 mph - N/A   Clear
5:35 AM 61.2 °F 50.5 °F 68% 30.14 in 10.0 mi ENE 9.2 mph - N/A   Clear
5:55 AM 60.3 °F 50.5 °F 70% 30.15 in 10.0 mi ENE 8.1 mph - N/A   Clear
6:15 AM 59.9 °F 50.5 °F 71% 30.15 in 10.0 mi NE 6.9 mph - N/A   Clear
6:35 AM 58.8 °F 50.4 °F 73% 30.16 in 10.0 mi ENE 5.8 mph - N/A   Clear
6:55 AM 58.1 °F 50.5 °F 76% 30.17 in 10.0 mi NE 5.8 mph - N/A   Clear
7:15 AM 59.9 °F 50.9 °F 72% 30.18 in 10.0 mi NE 6.9 mph - N/A   Clear
7:35 AM 61.3 °F 51.1 °F 69% 30.18 in 10.0 mi NE 6.9 mph - N/A   Clear
7:55 AM 63.0 °F 51.4 °F 66% 30.17 in 10.0 mi ENE 9.2 mph - N/A   Clear
8:15 AM 64.4 °F 49.5 °F 58% 30.16 in 10.0 mi NE 13.8 mph - N/A   Clear
8:35 AM 65.5 °F 48.0 °F 53% 30.17 in 10.0 mi NE 16.1 mph - N/A   Clear
8:55 AM 66.7 °F 47.5 °F 50% 30.18 in 10.0 mi NE 17.3 mph - N/A   Clear
9:15 AM 67.1 °F 47.7 °F 50% 30.18 in 10.0 mi NE 17.3 mph - N/A   Clear
9:35 AM 68.4 °F 47.7 °F 48% 30.18 in 10.0 mi ENE 13.8 mph 19.6 mph N/A   Clear
9:55 AM 69.8 °F 47.5 °F 45% 30.18 in 10.0 mi NE 11.5 mph 18.4 mph N/A   Clear
10:15 AM 70.0 °F 47.5 °F 45% 30.17 in 10.0 mi NE 13.8 mph 17.3 mph N/A   Clear
10:35 AM 71.1 °F 46.6 °F 42% 30.17 in 10.0 mi ENE 10.4 mph 16.1 mph N/A   Clear
10:55 AM 71.6 °F 46.4 °F 41% 30.17 in 10.0 mi East 9.2 mph - N/A   Clear
11:15 AM 72.5 °F 46.2 °F 39% 30.17 in 10.0 mi East 4.6 mph - N/A   Clear
11:35 AM 74.1 °F 46.2 °F 37% 30.18 in 10.0 mi ENE 3.5 mph - N/A   Clear
11:55 AM 75.0 °F 46.2 °F 36% 30.17 in 10.0 mi NE 9.2 mph - N/A   Clear
12:15 PM 75.4 °F 46.4 °F 36% 30.16 in 10.0 mi East 6.9 mph - N/A   Clear
12:35 PM 75.6 °F 45.0 °F 34% 30.16 in 10.0 mi Calm Calm - N/A   Clear
12:55 PM 76.3 °F 44.8 °F 33% 30.16 in 10.0 mi Calm Calm - N/A   Clear
1:15 PM 77.9 °F 45.0 °F 31% 30.15 in 10.0 mi East 8.1 mph - N/A   Clear
1:35 PM 77.9 °F 43.7 °F 30% 30.14 in 10.0 mi NE 6.9 mph - N/A   Clear
1:55 PM 79.5 °F 43.5 °F 28% 30.13 in 10.0 mi ENE 6.9 mph - N/A   Clear
2:15 PM 80.2 °F 43.9 °F 28% 30.11 in 10.0 mi ESE 4.6 mph - N/A   Clear
2:35 PM 81.1 °F 43.7 °F 27% 30.10 in 10.0 mi East 3.5 mph - N/A   Clear
2:55 PM 81.5 °F 43.2 °F 26% 30.09 in 10.0 mi ESE 4.6 mph - N/A   Clear
3:15 PM 81.7 °F 42.6 °F 25% 30.08 in 10.0 mi North 3.5 mph - N/A   Clear
3:35 PM 81.7 °F 41.9 °F 24% 30.07 in 10.0 mi ESE 3.5 mph - N/A   Clear
3:55 PM 82.9 °F 41.9 °F 23% 30.06 in 10.0 mi East 3.5 mph - N/A   Clear
4:15 PM 83.1 °F 42.1 °F 23% 30.05 in 10.0 mi SW 5.8 mph - N/A   Clear
4:35 PM 82.8 °F 42.4 °F 24% 30.05 in 10.0 mi SSE 3.5 mph - N/A   Clear
4:55 PM 84.0 °F 42.1 °F 23% 30.04 in 10.0 mi South 5.8 mph - N/A   Clear
5:15 PM 83.3 °F 42.1 °F 23% 30.03 in 10.0 mi South 4.6 mph - N/A   Clear
5:35 PM 83.8 °F 41.7 °F 23% 30.02 in 10.0 mi Calm Calm - N/A   Clear
5:55 PM 84.4 °F 41.4 °F 22% 30.01 in 10.0 mi SE 5.8 mph - N/A   Clear
6:15 PM 84.7 °F 41.9 °F 22% 30.00 in 10.0 mi SE 4.6 mph - N/A   Clear
6:35 PM 84.4 °F 41.2 °F 22% 29.99 in 10.0 mi ESE 6.9 mph - N/A   Clear
6:55 PM 84.4 °F 42.3 °F 23% 29.99 in 10.0 mi SE 6.9 mph - N/A   Clear
7:15 PM 83.8 °F 41.9 °F 23% 29.98 in 10.0 mi SE 8.1 mph - N/A   Clear
7:35 PM 83.3 °F 41.9 °F 23% 29.98 in 10.0 mi ESE 10.4 mph - N/A   Clear
7:55 PM 81.7 °F 42.6 °F 25% 29.98 in 10.0 mi ESE 12.7 mph - N/A   Clear
8:15 PM 80.2 °F 43.7 °F 27% 29.98 in 10.0 mi East 10.4 mph - N/A   Clear
8:35 PM 78.3 °F 44.1 °F 30% 29.98 in 10.0 mi East 10.4 mph - N/A   Clear
8:55 PM 76.1 °F 44.6 °F 33% 29.98 in 10.0 mi East 8.1 mph - N/A   Clear
9:15 PM 74.7 °F 45.5 °F 35% 29.97 in 10.0 mi East 9.2 mph - N/A   Clear
9:35 PM 72.7 °F 46.4 °F 39% 29.98 in 10.0 mi East 9.2 mph - N/A   Clear
9:55 PM 72.1 °F 46.6 °F 40% 29.98 in 10.0 mi East 10.4 mph - N/A   Clear
10:15 PM 70.5 °F 47.1 °F 43% 29.99 in 10.0 mi ESE 9.2 mph - N/A   Clear
10:35 PM 69.4 °F 47.5 °F 45% 30.00 in 10.0 mi ESE 9.2 mph - N/A   Clear
10:55 PM 68.4 °F 47.7 °F 48% 30.01 in 10.0 mi ESE 11.5 mph - N/A   Clear
11:15 PM 68.2 °F 47.8 °F 48% 30.03 in 10.0 mi ESE 9.2 mph - N/A   Clear
11:35 PM 67.8 °F 48.6 °F 50% 30.03 in 10.0 mi ESE 11.5 mph - N/A   Clear
11:55 PM 66.9 °F 48.6 °F 52% 30.03 in 10.0 mi ESE 11.5 mph - N/A   Clear